TRA1049 DTTA-LIPZ

Flight info

Callsign TRA1049
Flight time 1h 29m
Altitude 34000
Route TOBIB2A TOBIB UA725 OSMAR DCT TIVUK DCT ALEDI DCT APSUX DCT KUGIX DCT SUKOM Q125 NIMUM Z43 OTGIG
Aircraft A320/M-SDE3FGHIRWY/LB1

Departure

Time 2026-05-06 17:50
Airport Tunis Carthage International Airport (DTTA)

Arrival

Time 2026-05-06 19:19
Airport Venice Marco Polo Airport (LIPZ)
Time Latitude Longitude Altitude Speed Heading
2026-05-06 17:32 36.84525 10.21877 26 ft 0 kts
2026-05-06 17:42 36.84510 10.21875 24 ft 2 kts
2026-05-06 17:42 36.84494 10.21873 24 ft 2 kts
2026-05-06 17:42 36.84478 10.21871 23 ft 2 kts 11°
2026-05-06 17:42 36.84468 10.21868 24 ft 2 kts 31°
2026-05-06 17:43 36.84456 10.21855 23 ft 2 kts 80°
2026-05-06 17:43 36.84455 10.21845 22 ft 0 kts 99°
2026-05-06 17:43 36.84455 10.21846 22 ft 0 kts 99°
2026-05-06 17:43 36.84453 10.21856 22 ft 1 kts 99°
2026-05-06 17:45 36.84452 10.21870 24 ft 3 kts 99°
2026-05-06 17:46 36.84447 10.21905 21 ft 5 kts 101°
2026-05-06 17:46 36.84426 10.21952 22 ft 8 kts 135°
2026-05-06 17:46 36.84371 10.21952 21 ft 9 kts 194°
2026-05-06 17:46 36.84301 10.21931 22 ft 11 kts 192°
2026-05-06 17:47 36.84266 10.21922 20 ft 12 kts 192°
2026-05-06 17:47 36.84175 10.21897 21 ft 14 kts 193°
2026-05-06 17:47 36.84070 10.21866 18 ft 17 kts 192°
2026-05-06 17:48 36.83969 10.21839 18 ft 12 kts 189°
2026-05-06 17:48 36.83902 10.21902 17 ft 14 kts 106°
2026-05-06 17:48 36.83875 10.22029 19 ft 16 kts 104°
2026-05-06 17:48 36.83865 10.22178 17 ft 18 kts 84°
2026-05-06 17:49 36.83923 10.22323 17 ft 20 kts 53°
2026-05-06 17:49 36.84039 10.22409 17 ft 21 kts 12°
2026-05-06 17:49 36.84226 10.22458 17 ft 48 kts 11°
2026-05-06 17:49 36.84763 10.22605 26 ft 107 kts 13°
2026-05-06 17:50 36.85644 10.22850 24 ft 151 kts 12°
2026-05-06 17:50 36.86678 10.23132 552 ft 148 kts 12°
2026-05-06 17:50 36.87718 10.23029 1096 ft 153 kts 349°
2026-05-06 17:50 36.88776 10.22642 1468 ft 168 kts 345°
2026-05-06 17:51 36.89965 10.22185 1707 ft 190 kts 345°
2026-05-06 17:51 36.91308 10.21685 1948 ft 214 kts 345°
2026-05-06 17:51 36.92815 10.21143 2259 ft 237 kts 347°
2026-05-06 17:51 36.94485 10.20565 2645 ft 259 kts 347°
2026-05-06 17:52 36.96251 10.19972 3471 ft 263 kts 348°
2026-05-06 17:52 36.98042 10.19382 4309 ft 269 kts 349°
2026-05-06 17:52 36.99882 10.18789 5051 ft 278 kts 350°
2026-05-06 17:52 37.01766 10.18189 5765 ft 286 kts 349°
2026-05-06 17:53 37.03724 10.17567 6487 ft 294 kts 349°
2026-05-06 17:53 37.05732 10.16928 7177 ft 301 kts 348°
2026-05-06 17:53 37.07768 10.16280 7887 ft 308 kts 347°
2026-05-06 17:53 37.09862 10.15615 8588 ft 314 kts 346°
2026-05-06 17:54 37.12008 10.14933 9273 ft 321 kts 346°
2026-05-06 17:54 37.14187 10.14240 9930 ft 327 kts 345°
2026-05-06 17:54 37.14935 10.14002 10096 ft 331 kts 345°
2026-05-06 17:54 37.16520 10.13496 10300 ft 345 kts 344°
2026-05-06 17:55 37.18922 10.12729 10522 ft 366 kts 344°
2026-05-06 17:55 37.21421 10.11931 11065 ft 373 kts 343°
2026-05-06 17:55 37.23945 10.11120 11753 ft 376 kts 343°
2026-05-06 17:55 37.26485 10.10303 12468 ft 378 kts 342°
2026-05-06 17:56 37.29001 10.09499 13167 ft 380 kts 342°
2026-05-06 17:56 37.31578 10.08677 13798 ft 384 kts 341°
2026-05-06 17:56 37.34175 10.07849 14403 ft 386 kts 341°
2026-05-06 17:56 37.36777 10.07018 15037 ft 387 kts 341°
2026-05-06 17:57 37.39387 10.06184 15689 ft 387 kts 341°
2026-05-06 17:57 37.41996 10.05352 16333 ft 387 kts 340°
2026-05-06 17:57 37.44613 10.04524 16996 ft 388 kts 340°
2026-05-06 17:57 37.47232 10.03697 17648 ft 389 kts 340°
2026-05-06 17:58 37.49857 10.02869 18292 ft 389 kts 340°
2026-05-06 17:58 37.52492 10.02038 18843 ft 391 kts 340°
2026-05-06 17:58 37.55150 10.01196 19285 ft 397 kts 340°
2026-05-06 17:58 37.57841 10.00341 19766 ft 401 kts 340°
2026-05-06 17:59 37.60558 9.99476 20292 ft 404 kts 340°
2026-05-06 17:59 37.63287 9.98607 20816 ft 406 kts 340°
2026-05-06 17:59 37.66039 9.97730 21326 ft 409 kts 341°
2026-05-06 17:59 37.68807 9.96849 21842 ft 411 kts 341°
2026-05-06 18:00 37.71588 9.95963 22344 ft 414 kts 341°
2026-05-06 18:00 37.74388 9.95077 22867 ft 416 kts 341°
2026-05-06 18:00 37.77206 9.94186 23362 ft 419 kts 341°
2026-05-06 18:00 37.80043 9.93286 23782 ft 422 kts 341°
2026-05-06 18:01 37.82892 9.92375 24188 ft 423 kts 341°
2026-05-06 18:01 37.85756 9.91458 24591 ft 425 kts 341°
2026-05-06 18:01 37.88631 9.90536 24990 ft 427 kts 341°
2026-05-06 18:01 37.91519 9.89612 25380 ft 429 kts 341°
2026-05-06 18:02 37.94419 9.88684 25768 ft 431 kts 341°
2026-05-06 18:02 37.97335 9.87752 26144 ft 433 kts 341°
2026-05-06 18:02 38.00222 9.86831 26512 ft 435 kts 341°
2026-05-06 18:02 38.03161 9.85893 26876 ft 437 kts 341°
2026-05-06 18:03 38.06116 9.84947 27236 ft 438 kts 341°
2026-05-06 18:03 38.09077 9.83995 27592 ft 440 kts 341°
2026-05-06 18:03 38.12054 9.83036 27962 ft 442 kts 341°
2026-05-06 18:03 38.15037 9.82077 28354 ft 443 kts 341°
2026-05-06 18:04 38.18031 9.81117 28721 ft 444 kts 341°
2026-05-06 18:04 38.21036 9.80153 29064 ft 446 kts 341°
2026-05-06 18:04 38.24115 9.79448 29398 ft 454 kts 350°
2026-05-06 18:04 38.27296 9.79359 29706 ft 462 kts
2026-05-06 18:05 38.30502 9.79921 29987 ft 469 kts
2026-05-06 18:05 38.33707 9.80719 30328 ft 469 kts
2026-05-06 18:05 38.36904 9.81512 30735 ft 467 kts
2026-05-06 18:05 38.40090 9.82294 31150 ft 466 kts
2026-05-06 18:06 38.43268 9.83070 31572 ft 464 kts
2026-05-06 18:06 38.46432 9.83842 31963 ft 462 kts
2026-05-06 18:06 38.49587 9.84611 32408 ft 461 kts
2026-05-06 18:06 38.52739 9.85381 32805 ft 460 kts
2026-05-06 18:07 38.55881 9.86153 33224 ft 459 kts
2026-05-06 18:07 38.59012 9.86924 33659 ft 457 kts
2026-05-06 18:07 38.62134 9.87689 33921 ft 457 kts
2026-05-06 18:07 38.65254 9.88455 33968 ft 456 kts
2026-05-06 18:08 38.71484 9.89991 33985 ft 456 kts
2026-05-06 18:08 38.77743 9.91533 33969 ft 459 kts
2026-05-06 18:09 38.84021 9.93082 33974 ft 459 kts
2026-05-06 18:09 38.90339 9.93756 33975 ft 455 kts 359°
2026-05-06 18:10 38.96666 9.94250 33975 ft 456 kts 359°
2026-05-06 18:10 39.02973 9.94748 33964 ft 458 kts 359°
2026-05-06 18:11 39.09343 9.95255 33966 ft 459 kts 359°
2026-05-06 18:11 39.15723 9.95756 33984 ft 460 kts 359°
2026-05-06 18:12 39.22118 9.96265 33972 ft 461 kts 359°
2026-05-06 18:12 39.28527 9.96781 33973 ft 462 kts 359°
2026-05-06 18:13 39.34951 9.97301 33972 ft 463 kts 359°
2026-05-06 18:13 39.41387 9.97818 33983 ft 464 kts 359°
2026-05-06 18:14 39.47845 9.98336 33976 ft 465 kts 359°
2026-05-06 18:14 39.54316 9.98851 33975 ft 466 kts 359°
2026-05-06 18:15 39.60756 9.99492 33984 ft 470 kts
2026-05-06 18:15 39.67138 10.01595 33977 ft 475 kts 12°
2026-05-06 18:16 39.73509 10.03935 33979 ft 476 kts 12°
2026-05-06 18:16 39.79888 10.06280 33981 ft 477 kts 12°
2026-05-06 18:17 39.86281 10.08629 33994 ft 478 kts 12°
2026-05-06 18:17 39.92683 10.10978 33990 ft 478 kts 12°
2026-05-06 18:18 39.99087 10.13328 33989 ft 478 kts 12°
2026-05-06 18:18 40.05496 10.15696 34004 ft 479 kts 12°
2026-05-06 18:19 40.11900 10.18065 33993 ft 479 kts 12°
2026-05-06 18:19 40.18266 10.20414 33979 ft 479 kts 12°
2026-05-06 18:20 40.24686 10.22792 33952 ft 480 kts 12°
2026-05-06 18:20 40.31121 10.25183 33952 ft 481 kts 12°
2026-05-06 18:21 40.37571 10.27591 33961 ft 482 kts 13°
2026-05-06 18:21 40.44025 10.29995 33970 ft 483 kts 12°
2026-05-06 18:22 40.50491 10.32403 33971 ft 483 kts 13°
2026-05-06 18:22 40.56962 10.34839 33968 ft 484 kts 13°
2026-05-06 18:23 40.63439 10.37274 33971 ft 484 kts 13°
2026-05-06 18:23 40.69920 10.39706 33977 ft 485 kts 12°
2026-05-06 18:24 40.76410 10.42150 33969 ft 485 kts 13°
2026-05-06 18:24 40.82910 10.44602 33961 ft 486 kts 13°
2026-05-06 18:25 40.89410 10.47068 33973 ft 486 kts 13°
2026-05-06 18:25 40.95913 10.49549 33969 ft 487 kts 13°
2026-05-06 18:26 41.02379 10.52008 33966 ft 487 kts 12°
2026-05-06 18:26 41.08890 10.54478 33983 ft 487 kts 12°
2026-05-06 18:27 41.15368 10.56948 33979 ft 487 kts 12°
2026-05-06 18:27 41.21898 10.59384 33938 ft 487 kts 11°
2026-05-06 18:28 41.28493 10.61476 33968 ft 488 kts
2026-05-06 18:28 41.35119 10.63462 33968 ft 488 kts
2026-05-06 18:29 41.41738 10.65530 33969 ft 489 kts
2026-05-06 18:29 41.48357 10.67655 33970 ft 489 kts
2026-05-06 18:30 41.54971 10.69796 33983 ft 489 kts
2026-05-06 18:30 41.61586 10.71928 33981 ft 489 kts
2026-05-06 18:31 41.68153 10.74036 33977 ft 488 kts
2026-05-06 18:31 41.74754 10.76162 33990 ft 488 kts
2026-05-06 18:32 41.81349 10.78290 33980 ft 487 kts
2026-05-06 18:32 41.87935 10.80421 33975 ft 487 kts
2026-05-06 18:33 41.94516 10.82565 33984 ft 487 kts
2026-05-06 18:33 42.01097 10.84708 33976 ft 486 kts
2026-05-06 18:34 42.07674 10.86855 33978 ft 486 kts
2026-05-06 18:34 42.14253 10.89007 33992 ft 486 kts
2026-05-06 18:35 42.20827 10.91155 33980 ft 486 kts
2026-05-06 18:35 42.27359 10.93295 33975 ft 486 kts
2026-05-06 18:36 42.33930 10.95462 33975 ft 486 kts
2026-05-06 18:36 42.40500 10.97636 33970 ft 486 kts
2026-05-06 18:37 42.45960 10.99442 33973 ft 486 kts
2026-05-06 18:37 42.53642 11.01980 33979 ft 486 kts
2026-05-06 18:38 42.59104 11.03781 33971 ft 486 kts
2026-05-06 18:38 42.65675 11.05964 33965 ft 486 kts
2026-05-06 18:39 42.72246 11.08158 33986 ft 486 kts
2026-05-06 18:40 42.82109 11.11463 33970 ft 487 kts
2026-05-06 18:40 42.88688 11.13668 33966 ft 487 kts
2026-05-06 18:41 42.95265 11.15873 33993 ft 487 kts
2026-05-06 18:41 43.01848 11.18080 33981 ft 487 kts
2026-05-06 18:42 43.08380 11.20282 33997 ft 487 kts
2026-05-06 18:42 43.14960 11.22503 33990 ft 487 kts
2026-05-06 18:43 43.21531 11.24729 33981 ft 486 kts
2026-05-06 18:43 43.28097 11.26969 33996 ft 486 kts
2026-05-06 18:44 43.34669 11.29201 33991 ft 486 kts
2026-05-06 18:44 43.41240 11.31430 33968 ft 487 kts
2026-05-06 18:45 43.47817 11.33672 33977 ft 487 kts
2026-05-06 18:45 43.54390 11.35929 33982 ft 487 kts
2026-05-06 18:46 43.60976 11.38080 33976 ft 485 kts
2026-05-06 18:46 43.67580 11.40023 33986 ft 485 kts
2026-05-06 18:47 43.74149 11.41939 33970 ft 487 kts
2026-05-06 18:47 43.80770 11.43946 33964 ft 488 kts
2026-05-06 18:48 43.87404 11.45993 33975 ft 489 kts
2026-05-06 18:48 43.94060 11.48039 33950 ft 491 kts
2026-05-06 18:49 44.00736 11.50071 33946 ft 492 kts
2026-05-06 18:49 44.07433 11.52119 33048 ft 497 kts
2026-05-06 18:49 44.10811 11.53164 32383 ft 496 kts
2026-05-06 18:50 44.14171 11.54209 31849 ft 493 kts
2026-05-06 18:50 44.17473 11.55441 31534 ft 490 kts 19°
2026-05-06 18:50 44.20425 11.57703 31409 ft 482 kts 37°
2026-05-06 18:50 44.22916 11.60755 31153 ft 474 kts 43°
2026-05-06 18:51 44.25280 11.63921 30786 ft 469 kts 44°
2026-05-06 18:51 44.27612 11.67073 30396 ft 465 kts 44°
2026-05-06 18:51 44.29926 11.70212 30006 ft 462 kts 44°
2026-05-06 18:51 44.32226 11.73331 29582 ft 459 kts 44°
2026-05-06 18:52 44.34513 11.76435 29181 ft 456 kts 44°
2026-05-06 18:52 44.36954 11.79205 28815 ft 450 kts 28°
2026-05-06 18:52 44.39646 11.81261 28434 ft 445 kts 24°
2026-05-06 18:52 44.42393 11.83238 28077 ft 442 kts 24°
2026-05-06 18:53 44.45121 11.85193 27731 ft 439 kts 24°
2026-05-06 18:53 44.47834 11.87136 27374 ft 436 kts 24°
2026-05-06 18:53 44.50526 11.89066 27022 ft 433 kts 24°
2026-05-06 18:53 44.53200 11.90982 26678 ft 430 kts 24°
2026-05-06 18:54 44.55856 11.92887 26324 ft 427 kts 24°
2026-05-06 18:54 44.58513 11.94715 25988 ft 421 kts 17°
2026-05-06 18:54 44.61298 11.95724 25657 ft 408 kts
2026-05-06 18:54 44.64078 11.95658 25298 ft 393 kts 343°
2026-05-06 18:55 44.66650 11.94609 24916 ft 380 kts 330°
2026-05-06 18:55 44.69099 11.93230 24519 ft 378 kts 331°
2026-05-06 18:55 44.71533 11.91862 24146 ft 376 kts 331°
2026-05-06 18:55 44.73966 11.90542 23922 ft 377 kts 336°
2026-05-06 18:56 44.76592 11.89942 23932 ft 390 kts 354°
2026-05-06 18:56 44.79306 11.90450 23919 ft 400 kts 13°
2026-05-06 18:56 44.81841 11.92108 23922 ft 406 kts 31°
2026-05-06 18:56 44.84195 11.94329 23744 ft 407 kts 32°
2026-05-06 18:57 44.86537 11.96569 23292 ft 407 kts 32°
2026-05-06 18:57 44.88896 11.98837 22459 ft 415 kts 32°
2026-05-06 18:57 44.91267 12.01116 22201 ft 407 kts 33°
2026-05-06 18:57 44.93432 12.03603 22075 ft 397 kts 40°
2026-05-06 18:58 44.95467 12.06162 21883 ft 388 kts 40°
2026-05-06 18:58 44.97458 12.08616 21570 ft 383 kts 36°
2026-05-06 18:58 44.99767 12.10487 21205 ft 374 kts 17°
2026-05-06 18:58 45.02222 12.11302 20848 ft 363 kts 359°
2026-05-06 18:59 45.04695 12.11108 20468 ft 351 kts 341°
2026-05-06 18:59 45.06936 12.09954 20092 ft 338 kts 323°
2026-05-06 18:59 45.08763 12.07998 19753 ft 322 kts 306°
2026-05-06 18:59 45.10201 12.05596 19353 ft 317 kts 295°
2026-05-06 19:00 45.10967 12.02752 18864 ft 308 kts 278°
2026-05-06 19:00 45.11746 11.99891 18361 ft 321 kts 297°
2026-05-06 19:00 45.13273 11.97495 17766 ft 335 kts 312°
2026-05-06 19:00 45.15075 11.95344 17139 ft 341 kts 314°
2026-05-06 19:01 45.16915 11.93192 16513 ft 345 kts 314°
2026-05-06 19:01 45.18742 11.91040 15919 ft 348 kts 314°
2026-05-06 19:01 45.20604 11.88826 15315 ft 351 kts 314°
2026-05-06 19:01 45.22477 11.86579 14726 ft 354 kts 314°
2026-05-06 19:02 45.24351 11.84310 14148 ft 355 kts 314°
2026-05-06 19:02 45.26233 11.82012 13559 ft 357 kts 314°
2026-05-06 19:02 45.28108 11.79699 12920 ft 358 kts 314°
2026-05-06 19:02 45.29982 11.77368 12290 ft 357 kts 314°
2026-05-06 19:03 45.31811 11.75082 11666 ft 344 kts 314°
2026-05-06 19:03 45.33573 11.72875 11064 ft 332 kts 314°
2026-05-06 19:03 45.35277 11.70736 10471 ft 322 kts 314°
2026-05-06 19:03 45.36930 11.68656 9956 ft 312 kts 314°
2026-05-06 19:04 45.38528 11.66631 9426 ft 303 kts 314°
2026-05-06 19:04 45.40102 11.64693 8871 ft 296 kts 317°
2026-05-06 19:04 45.41881 11.63268 8328 ft 296 kts 341°
2026-05-06 19:04 45.43913 11.63063 7794 ft 295 kts
2026-05-06 19:05 45.45786 11.64141 7327 ft 290 kts 36°
2026-05-06 19:05 45.47093 11.66240 6881 ft 281 kts 65°
2026-05-06 19:05 45.47567 11.68855 6446 ft 269 kts 94°
2026-05-06 19:05 45.47146 11.71364 5986 ft 257 kts 119°
2026-05-06 19:06 45.46298 11.73571 5528 ft 251 kts 123°
2026-05-06 19:06 45.45412 11.75667 5197 ft 241 kts 124°
2026-05-06 19:06 45.44574 11.77641 5045 ft 223 kts 124°
2026-05-06 19:06 45.43700 11.79368 5043 ft 212 kts 142°
2026-05-06 19:07 45.42525 11.80251 5731 ft 163 kts 176°
2026-05-06 19:07 45.41585 11.80477 6136 ft 133 kts 166°
2026-05-06 19:07 45.40588 11.81223 5101 ft 186 kts 144°
2026-05-06 19:07 45.39567 11.82366 4948 ft 185 kts 145°
2026-05-06 19:08 45.38586 11.83491 4936 ft 177 kts 144°
2026-05-06 19:08 45.37661 11.84565 4928 ft 166 kts 144°
2026-05-06 19:08 45.36820 11.85556 5003 ft 144 kts 144°
2026-05-06 19:08 45.36089 11.86440 4889 ft 138 kts 144°
2026-05-06 19:09 45.35315 11.87366 4603 ft 149 kts 143°
2026-05-06 19:09 45.34574 11.88432 4526 ft 157 kts 131°
2026-05-06 19:09 45.33909 11.89727 4106 ft 167 kts 127°
2026-05-06 19:09 45.33173 11.90892 4060 ft 149 kts 141°
2026-05-06 19:10 45.32423 11.91807 3908 ft 141 kts 143°
2026-05-06 19:10 45.31641 11.92712 3554 ft 147 kts 144°
2026-05-06 19:10 45.30805 11.93660 3308 ft 161 kts 144°
2026-05-06 19:10 45.29890 11.94686 3085 ft 172 kts 144°
2026-05-06 19:11 45.28942 11.95738 3036 ft 172 kts 144°
2026-05-06 19:11 45.28063 11.96867 3026 ft 171 kts 124°
2026-05-06 19:11 45.27821 11.98497 3034 ft 174 kts 81°
2026-05-06 19:11 45.28223 12.00119 3030 ft 174 kts 68°
2026-05-06 19:12 45.28751 12.01650 3034 ft 172 kts 66°
2026-05-06 19:12 45.29292 12.03153 3031 ft 170 kts 65°
2026-05-06 19:12 45.29830 12.04629 3020 ft 166 kts 65°
2026-05-06 19:12 45.30357 12.06061 3008 ft 161 kts 65°
2026-05-06 19:13 45.30859 12.07450 3019 ft 155 kts 65°
2026-05-06 19:13 45.31339 12.08783 3014 ft 148 kts 65°
2026-05-06 19:13 45.31810 12.10099 2967 ft 149 kts 65°
2026-05-06 19:13 45.32280 12.11413 2884 ft 156 kts 65°
2026-05-06 19:14 45.32808 12.12770 3071 ft 159 kts 54°
2026-05-06 19:14 45.33593 12.13935 3051 ft 174 kts 41°
2026-05-06 19:14 45.34566 12.14999 2933 ft 177 kts 36°
2026-05-06 19:14 45.35566 12.16013 3006 ft 177 kts 35°
2026-05-06 19:15 45.36243 12.16664 3110 ft 178 kts 34°
2026-05-06 19:15 45.37429 12.18275 3048 ft 176 kts 47°
2026-05-06 19:15 45.38293 12.19480 2886 ft 174 kts 44°
2026-05-06 19:15 45.39166 12.20627 2688 ft 173 kts 44°
2026-05-06 19:16 45.40049 12.21766 2469 ft 170 kts 43°
2026-05-06 19:16 45.40920 12.22883 2265 ft 166 kts 43°
2026-05-06 19:16 45.41770 12.23972 2029 ft 161 kts 43°
2026-05-06 19:16 45.42589 12.25021 1815 ft 156 kts 43°
2026-05-06 19:17 45.43382 12.26035 1613 ft 151 kts 44°
2026-05-06 19:17 45.44150 12.27019 1396 ft 145 kts 44°
2026-05-06 19:17 45.44885 12.27953 1196 ft 138 kts 41°
2026-05-06 19:17 45.45608 12.28859 1000 ft 142 kts 42°
2026-05-06 19:18 45.46347 12.29848 920 ft 149 kts 44°
2026-05-06 19:18 45.47118 12.30842 738 ft 150 kts 41°
2026-05-06 19:18 45.47917 12.31844 459 ft 153 kts 43°
2026-05-06 19:18 45.48687 12.32845 248 ft 146 kts 39°
2026-05-06 19:19 45.49422 12.33773 65 ft 135 kts 43°
2026-05-06 19:19 45.50052 12.34590 12 ft 101 kts 41°
2026-05-06 19:19 45.50358 12.34982 10 ft 29 kts 39°
2026-05-06 19:19 45.50525 12.35070 12 ft 25 kts
2026-05-06 19:20 45.50603 12.35039 11 ft 0 kts 309°
2026-05-06 19:20 45.50613 12.34987 12 ft 12 kts 274°
2026-05-06 19:20 45.50608 12.34827 13 ft 19 kts 267°
2026-05-06 19:20 45.50544 12.34674 17 ft 19 kts 219°
2026-05-06 19:21 45.50442 12.34551 19 ft 20 kts 221°
2026-05-06 19:21 45.50335 12.34407 20 ft 22 kts 223°
2026-05-06 19:21 45.50242 12.34296 17 ft 19 kts 219°
2026-05-06 19:21 45.50177 12.34219 17 ft 9 kts 221°
2026-05-06 19:22 45.50149 12.34184 16 ft 3 kts 221°
2026-05-06 19:22 45.50121 12.34143 16 ft 10 kts 226°
2026-05-06 19:22 45.50058 12.34053 13 ft 15 kts 238°
2026-05-06 19:22 45.50088 12.33949 14 ft 0 kts 315°